Location: Twentynine Palms Airport
(34.1316°N, 115.9458°W)
Time: 22:27:29
(UTC-07:00)

Oscar 19 - Visible Passes

Search period start: 27 August 2015 00:00
Search period end: 06 September 2015 00:00
Orbit: 775 x 790 km, 98.5° (Epoch: 27 August)

Date Brightness Start Highest point End Pass type
(mag) Time Alt. Az. Time Alt. Az. Time Alt. Az.
27 Aug 13.0 02:22:56 10° N 02:24:18 19° N 02:24:18 19° N visible
28 Aug 13.4 01:51:22 10° NNE 01:52:06 14° NNE 01:52:06 14° NNE visible
28 Aug 13.0 03:32:02 10° NNW 03:32:39 12° NNW 03:32:39 12° NNW visible
29 Aug 12.9 02:59:14 10° N 03:00:27 16° NNW 03:00:27 16° NNW visible
30 Aug 13.1 02:27:07 10° N 02:28:15 17° N 02:28:15 17° N visible
31 Aug 13.5 01:55:29 10° NNE 01:56:03 13° NNE 01:56:03 13° NNE visible
31 Aug 13.1 03:36:27 10° NNW 03:36:36 10° NNW 03:36:36 10° NNW visible
01 Sep 13.1 03:03:30 10° N 03:04:24 14° NNW 03:04:24 14° NNW visible
02 Sep 13.2 02:31:19 10° N 02:32:12 15° N 02:32:12 15° N visible
03 Sep 13.5 01:59:37 10° NNE 02:00:00 12° NNE 02:00:00 12° NNE visible
04 Sep 13.2 03:07:46 10° NNW 03:08:21 13° NNW 03:08:21 13° NNW visible
05 Sep 13.3 02:35:32 10° N 02:36:08 13° N 02:36:08 13° N visible
